Lid_Strength_Index
0 1 1 -0 0 1 1 0 -1 0 2 4 4 5 3 3 2 2 2 1 1 2
0 0 0 -0 -0 1 -0 1 1 2 5 5 4 4 3 3 3 2 1 1 1 1
0 0 0 0 0 0 1 1 2 4 5 4 4 4 3 2 1 1 1 1 1 1
1 1 0 0 1 2 2 3 4 5 6 5 4 3 3 2 2 2 2 1 2 2
2 2 2 2 1 2 4 5 5 6 5 4 3 2 2 2 2 2 2 2 1 1
3 3 4 4 4 5 5 6 5 4 4 3 2 2 2 2 3 3 2 2 2 2
3 5 7 7 5 5 5 5 4 4 3 3 3 3 2 2 2 2 2 1 1 1
6 7 7 6 5 5 5 4 4 4 3 3 4 6 4 2 2 2 1 1 1 1
6 6 5 5 5 4 5 4 4 4 4 4 6 10 9 6 2 2 2 1 1 1
5 5 5 5 5 5 4 4 4 4 4 5 6 10 10 9 2 2 2 2 2 3
5 5 5 5 5 5 5 4 4 4 4 5 8 11 11 10 3 2 2 2 4 4
5 5 5 5 5 5 4 4 4 4 4 5 8 12 11 8 3 3 3 3 4 6
5 5 5 5 5 4 4 5 5 6 6 9 7 11 10 9 5 4 5 4 4 10
5 5 5 5 5 4 5 5 6 7 7 7 9 8 11 10 7 8 6 7 6 6